Year,Month,Day,Hour,Minute,Value (Times are PST for barometer in hPa)
2020,02,23,00,00,1015.98
2020,02,23,00,01,1015.92
2020,02,23,00,02,1015.92
2020,02,23,00,03,1015.88
2020,02,23,00,04,1015.82
2020,02,23,00,05,1015.75
2020,02,23,00,06,1015.68
2020,02,23,00,07,1015.65
2020,02,23,00,08,1015.65
2020,02,23,00,09,1015.61
2020,02,23,00,10,1015.58
2020,02,23,00,11,1015.54
2020,02,23,00,12,1015.54
2020,02,23,00,13,1015.54
2020,02,23,00,14,1015.61
2020,02,23,00,15,1015.58
2020,02,23,00,16,1015.54
2020,02,23,00,17,1015.54
2020,02,23,00,18,1015.51
2020,02,23,00,19,1015.54
2020,02,23,00,20,1015.53
2020,02,23,00,21,1015.44
2020,02,23,00,22,1015.41
2020,02,23,00,23,1015.44
2020,02,23,00,24,1015.44
2020,02,23,00,25,1015.41
2020,02,23,00,26,1015.31
2020,02,23,00,27,1015.27
2020,02,23,00,28,1015.24
2020,02,23,00,29,1015.21
2020,02,23,00,30,1015.21
2020,02,23,00,31,1015.24
2020,02,23,00,32,1015.17
2020,02,23,00,33,1015.14
2020,02,23,00,34,1015.10
2020,02,23,00,35,1015.04
2020,02,23,00,36,1014.97
2020,02,23,00,37,1014.90
2020,02,23,00,38,1014.80
2020,02,23,00,39,1014.77
2020,02,23,00,40,1014.73
2020,02,23,00,41,1014.70
2020,02,23,00,42,1014.66
2020,02,23,00,43,1014.60
2020,02,23,00,44,1014.56
2020,02,23,00,45,1014.49
2020,02,23,00,46,1014.43
2020,02,23,00,47,1014.43
2020,02,23,00,48,1014.39
2020,02,23,00,49,1014.39
2020,02,23,00,50,1014.39
2020,02,23,00,51,1014.36
2020,02,23,00,52,1014.33
2020,02,23,00,53,1014.26
2020,02,23,00,54,1014.26
2020,02,23,00,55,1014.22
2020,02,23,00,56,1014.22
2020,02,23,00,57,1014.12
2020,02,23,00,58,1014.05
2020,02,23,00,59,1013.99
2020,02,23,01,00,1014.02
2020,02,23,01,01,1014.12
2020,02,23,01,02,1014.11
2020,02,23,01,03,1014.02
2020,02,23,01,04,1013.99
2020,02,23,01,05,1013.99
2020,02,23,01,06,1014.02
2020,02,23,01,07,1014.02
2020,02,23,01,08,1014.02
2020,02,23,01,09,1013.92
2020,02,23,01,10,1013.85
2020,02,23,01,11,1013.85
2020,02,23,01,12,1013.84
2020,02,23,01,13,1013.75
2020,02,23,01,14,1013.75
2020,02,23,01,15,1013.72
2020,02,23,01,16,1013.65
2020,02,23,01,17,1013.64
2020,02,23,01,18,1013.55
2020,02,23,01,19,1013.55
2020,02,23,01,20,1013.55
2020,02,23,01,21,1013.51
2020,02,23,01,22,1013.41
2020,02,23,01,23,1013.34
2020,02,23,01,24,1013.34
2020,02,23,01,25,1013.27
2020,02,23,01,26,1013.11
2020,02,23,01,27,1013.04
2020,02,23,01,28,1013.00
2020,02,23,01,29,1012.94
2020,02,23,01,30,1012.90
2020,02,23,01,31,1012.97
2020,02,23,01,32,1012.94
2020,02,23,01,33,1012.94
2020,02,23,01,34,1012.87
2020,02,23,01,35,1012.87
2020,02,23,01,36,1012.87
2020,02,23,01,37,1012.80
2020,02,23,01,38,1012.69
2020,02,23,01,39,1012.55
2020,02,23,01,40,1012.46
2020,02,23,01,41,1012.36
2020,02,23,01,42,1012.33
2020,02,23,01,43,1012.23
2020,02,23,01,44,1012.16
2020,02,23,01,45,1012.09
2020,02,23,01,46,1012.12
2020,02,23,01,47,1012.16
2020,02,23,01,48,1012.12
2020,02,23,01,49,1012.09
2020,02,23,01,50,1012.09
2020,02,23,01,51,1012.02
2020,02,23,01,52,1011.99
2020,02,23,01,53,1011.95
2020,02,23,01,54,1011.95
2020,02,23,01,55,1011.89
2020,02,23,01,56,1011.85
2020,02,23,01,57,1011.85
2020,02,23,01,58,1011.82
2020,02,23,01,59,1011.72
2020,02,23,02,00,1011.72
2020,02,23,02,01,1011.65
2020,02,23,02,02,1011.68
2020,02,23,02,03,1011.67
2020,02,23,02,04,1011.58
2020,02,23,02,05,1011.38
2020,02,23,02,06,1011.45
2020,02,23,02,07,1011.45
2020,02,23,02,08,1011.38
2020,02,23,02,09,1011.28
2020,02,23,02,10,1011.24
2020,02,23,02,11,1011.24
2020,02,23,02,12,1011.21
2020,02,23,02,13,1011.21
2020,02,23,02,14,1011.18
2020,02,23,02,15,1011.21
2020,02,23,02,16,1011.21
2020,02,23,02,17,1011.17
2020,02,23,02,18,1011.07
2020,02,23,02,19,1010.97
2020,02,23,02,20,1010.94
2020,02,23,02,21,1010.86
2020,02,23,02,22,1010.76
2020,02,23,02,23,1010.63
2020,02,23,02,24,1010.57
2020,02,23,02,25,1010.59
2020,02,23,02,26,1010.50
2020,02,23,02,27,1010.49
2020,02,23,02,28,1010.40
2020,02,23,02,29,1010.30
2020,02,23,02,30,1010.30
2020,02,23,02,31,1010.35
2020,02,23,02,32,1010.23
2020,02,23,02,33,1010.16
2020,02,23,02,34,1010.13
2020,02,23,02,35,1009.99
2020,02,23,02,36,1009.92
2020,02,23,02,37,1009.86
2020,02,23,02,38,1009.78
2020,02,23,02,39,1009.69
2020,02,23,02,40,1009.65
2020,02,23,02,41,1009.58
2020,02,23,02,42,1009.62
2020,02,23,02,43,1009.55
2020,02,23,02,44,1009.48
2020,02,23,02,45,1009.42
2020,02,23,02,46,1009.47
2020,02,23,02,47,1009.31
2020,02,23,02,48,1009.35
2020,02,23,02,49,1009.31
2020,02,23,02,50,1009.28
2020,02,23,02,51,1009.24
2020,02,23,02,52,1009.08
2020,02,23,02,53,1009.08
2020,02,23,02,54,1009.11
2020,02,23,02,55,1009.04
2020,02,23,02,56,1008.97
2020,02,23,02,57,1008.97
2020,02,23,02,58,1008.91
2020,02,23,02,59,1008.87
2020,02,23,03,00,1008.84
2020,02,23,03,01,1008.70
2020,02,23,03,02,1008.70
2020,02,23,03,03,1008.67
2020,02,23,03,04,1008.60
2020,02,23,03,05,1008.57
2020,02,23,03,06,1008.50
2020,02,23,03,07,1008.40
2020,02,23,03,08,1008.33
2020,02,23,03,09,1008.23
2020,02,23,03,10,1008.23
2020,02,23,03,11,1008.16
2020,02,23,03,12,1008.23
2020,02,23,03,13,1008.23
2020,02,23,03,14,1008.26
2020,02,23,03,15,1008.23
2020,02,23,03,16,1008.20
2020,02,23,03,17,1008.16
2020,02,23,03,18,1008.16
2020,02,23,03,19,1008.13
2020,02,23,03,20,1008.06
2020,02,23,03,21,1008.03
2020,02,23,03,22,1007.93
2020,02,23,03,23,1007.86
2020,02,23,03,24,1007.93
2020,02,23,03,25,1007.93
2020,02,23,03,26,1007.93
2020,02,23,03,27,1007.86
2020,02,23,03,28,1007.86
2020,02,23,03,29,1007.86
2020,02,23,03,30,1007.72
2020,02,23,03,31,1007.72
2020,02,23,03,32,1007.82
2020,02,23,03,33,1007.76
2020,02,23,03,34,1007.64
2020,02,23,03,35,1007.52
2020,02,23,03,36,1007.45
2020,02,23,03,37,1007.42
2020,02,23,03,38,1007.35
2020,02,23,03,39,1007.32
2020,02,23,03,40,1007.35
2020,02,23,03,41,1007.42
2020,02,23,03,42,1007.48
2020,02,23,03,43,1007.38
2020,02,23,03,44,1007.25
2020,02,23,03,45,1007.18
2020,02,23,03,46,1007.07
2020,02,23,03,47,1006.94
2020,02,23,03,48,1006.88
2020,02,23,03,49,1006.88
2020,02,23,03,50,1006.84
2020,02,23,03,51,1006.80
2020,02,23,03,52,1006.67
2020,02,23,03,53,1006.74
2020,02,23,03,54,1006.92
2020,02,23,03,55,1007.08
2020,02,23,03,56,1007.10
2020,02,23,03,57,1006.84
2020,02,23,03,58,1006.81
2020,02,23,03,59,1006.71
2020,02,23,04,00,1006.73
2020,02,23,04,01,1006.60
2020,02,23,04,02,1006.60
2020,02,23,04,03,1006.67
2020,02,23,04,04,1006.74
2020,02,23,04,05,1006.77
2020,02,23,04,06,1006.74
2020,02,23,04,07,1006.77
2020,02,23,04,08,1006.84
2020,02,23,04,09,1006.81
2020,02,23,04,10,1006.71
2020,02,23,04,11,1006.77
2020,02,23,04,12,1006.78
2020,02,23,04,13,1006.89
2020,02,23,04,14,1007.01
2020,02,23,04,15,1006.91
2020,02,23,04,16,1006.84
2020,02,23,04,17,1007.09
2020,02,23,04,18,1007.35
2020,02,23,04,19,1007.56
2020,02,23,04,20,1007.72
2020,02,23,04,21,1008.08
2020,02,23,04,22,1008.38
2020,02,23,04,23,1008.47
2020,02,23,04,24,1008.43
2020,02,23,04,25,1008.47
2020,02,23,04,26,1008.57
2020,02,23,04,27,1008.67
2020,02,23,04,28,1008.60
2020,02,23,04,29,1008.70
2020,02,23,04,30,1008.60
2020,02,23,04,31,1008.57
2020,02,23,04,32,1008.57
2020,02,23,04,33,1008.60
2020,02,23,04,34,1008.53
2020,02,23,04,35,1008.50
2020,02,23,04,36,1008.50
2020,02,23,04,37,1008.47
2020,02,23,04,38,1008.40
2020,02,23,04,39,1008.23
2020,02,23,04,40,1008.23
2020,02,23,04,41,1008.20
2020,02,23,04,42,1008.13
2020,02,23,04,43,1008.09
2020,02,23,04,44,1007.99
2020,02,23,04,45,1007.93
2020,02,23,04,46,1007.86
2020,02,23,04,47,1007.82
2020,02,23,04,48,1007.76
2020,02,23,04,49,1007.76
2020,02,23,04,50,1007.72
2020,02,23,04,51,1007.72
2020,02,23,04,52,1007.69
2020,02,23,04,53,1007.69
2020,02,23,04,54,1007.54
2020,02,23,04,55,1007.42
2020,02,23,04,56,1007.32
2020,02,23,04,57,1007.21
2020,02,23,04,58,1007.28
2020,02,23,04,59,1007.32
2020,02,23,05,00,1007.28
2020,02,23,05,01,1007.25
2020,02,23,05,02,1007.25
2020,02,23,05,03,1007.25
2020,02,23,05,04,1007.32
2020,02,23,05,05,1007.42
2020,02,23,05,06,1007.48
2020,02,23,05,07,1007.48
2020,02,23,05,08,1007.48
2020,02,23,05,09,1007.55
2020,02,23,05,10,1007.62
2020,02,23,05,11,1007.65
2020,02,23,05,12,1007.65
2020,02,23,05,13,1007.58
2020,02,23,05,14,1007.45
2020,02,23,05,15,1007.38
2020,02,23,05,16,1007.32
2020,02,23,05,17,1007.18
2020,02,23,05,18,1007.08
2020,02,23,05,19,1007.01
2020,02,23,05,20,1007.01
2020,02,23,05,21,1007.01
2020,02,23,05,22,1007.01
2020,02,23,05,23,1007.04
2020,02,23,05,24,1007.01
2020,02,23,05,25,1007.01
2020,02,23,05,26,1007.04
2020,02,23,05,27,1007.11
2020,02,23,05,28,1007.15
2020,02,23,05,29,1007.21
2020,02,23,05,30,1007.25
2020,02,23,05,31,1007.25
2020,02,23,05,32,1007.28
2020,02,23,05,33,1007.28
2020,02,23,05,34,1007.28
2020,02,23,05,35,1007.33
2020,02,23,05,36,1007.42
2020,02,23,05,37,1007.42
2020,02,23,05,38,1007.42
2020,02,23,05,39,1007.42
2020,02,23,05,40,1007.42
2020,02,23,05,41,1007.45
2020,02,23,05,42,1007.59
2020,02,23,05,43,1007.59
2020,02,23,05,44,1007.45
2020,02,23,05,45,1007.42
2020,02,23,05,46,1007.38
2020,02,23,05,47,1007.38
2020,02,23,05,48,1007.38
2020,02,23,05,49,1007.38
2020,02,23,05,50,1007.38
2020,02,23,05,51,1007.35
2020,02,23,05,52,1007.35
2020,02,23,05,53,1007.32
2020,02,23,05,54,1007.28
2020,02,23,05,55,1007.25
2020,02,23,05,56,1007.25
2020,02,23,05,57,1007.25
2020,02,23,05,58,1007.25
2020,02,23,05,59,1007.28
2020,02,23,06,00,1007.28
2020,02,23,06,01,1007.32
2020,02,23,06,02,1007.42
2020,02,23,06,03,1007.32
2020,02,23,06,04,1007.38
2020,02,23,06,05,1007.48
2020,02,23,06,06,1007.48
2020,02,23,06,07,1007.45
2020,02,23,06,08,1007.45
2020,02,23,06,09,1007.32
2020,02,23,06,10,1007.32
2020,02,23,06,11,1007.32
2020,02,23,06,12,1007.32
2020,02,23,06,13,1007.35
2020,02,23,06,14,1007.32
2020,02,23,06,15,1007.25
2020,02,23,06,16,1007.28
2020,02,23,06,17,1007.18
2020,02,23,06,18,1007.18
2020,02,23,06,19,1007.18
2020,02,23,06,20,1007.21
2020,02,23,06,21,1007.28
2020,02,23,06,22,1007.25
2020,02,23,06,23,1007.25
2020,02,23,06,24,1007.21
2020,02,23,06,25,1007.25
2020,02,23,06,26,1007.21
2020,02,23,06,27,1007.18
2020,02,23,06,28,1007.18
2020,02,23,06,29,1007.11
2020,02,23,06,30,1007.08
2020,02,23,06,31,1007.08
2020,02,23,06,32,1007.04
2020,02,23,06,33,1007.01
2020,02,23,06,34,1007.18
2020,02,23,06,35,1007.21
2020,02,23,06,36,1007.08
2020,02,23,06,37,1007.04
2020,02,23,06,38,1007.01
2020,02,23,06,39,1006.94
2020,02,23,06,40,1007.01
2020,02,23,06,41,1007.15
2020,02,23,06,42,1007.19
2020,02,23,06,43,1007.38
2020,02,23,06,44,1007.38
2020,02,23,06,45,1007.28
2020,02,23,06,46,1007.21
2020,02,23,06,47,1007.18
2020,02,23,06,48,1007.18
2020,02,23,06,49,1007.18
2020,02,23,06,50,1007.08
2020,02,23,06,51,1006.98
2020,02,23,06,52,1007.01
2020,02,23,06,53,1007.01
2020,02,23,06,54,1007.01
2020,02,23,06,55,1007.11
2020,02,23,06,56,1007.21
2020,02,23,06,57,1007.21
2020,02,23,06,58,1007.18
2020,02,23,06,59,1007.15
2020,02,23,07,00,1007.32
2020,02,23,07,01,1007.28
2020,02,23,07,02,1007.21
2020,02,23,07,03,1007.25
2020,02,23,07,04,1007.18
2020,02,23,07,05,1007.28
2020,02,23,07,06,1007.28
2020,02,23,07,07,1007.28
2020,02,23,07,08,1007.28
2020,02,23,07,09,1007.28
2020,02,23,07,10,1007.32
2020,02,23,07,11,1007.35
2020,02,23,07,12,1007.35
2020,02,23,07,13,1007.35
2020,02,23,07,14,1007.32
2020,02,23,07,15,1007.45
2020,02,23,07,16,1007.44
2020,02,23,07,17,1007.32
2020,02,23,07,18,1007.32
2020,02,23,07,19,1007.32
2020,02,23,07,20,1007.42
2020,02,23,07,21,1007.42
2020,02,23,07,22,1007.38
2020,02,23,07,23,1007.48
2020,02,23,07,24,1007.42
2020,02,23,07,25,1007.48
2020,02,23,07,26,1007.48
2020,02,23,07,27,1007.55
2020,02,23,07,28,1007.55
2020,02,23,07,29,1007.55
2020,02,23,07,30,1007.62
2020,02,23,07,31,1007.62
2020,02,23,07,32,1007.69
2020,02,23,07,33,1007.65
2020,02,23,07,34,1007.76
2020,02,23,07,35,1007.72
2020,02,23,07,36,1007.69
2020,02,23,07,37,1007.79
2020,02,23,07,38,1007.79
2020,02,23,07,39,1007.79
2020,02,23,07,40,1007.82
2020,02,23,07,41,1007.79
2020,02,23,07,42,1007.79
2020,02,23,07,43,1007.82
2020,02,23,07,44,1007.79
2020,02,23,07,45,1007.82
2020,02,23,07,46,1007.86
2020,02,23,07,47,1007.82
2020,02,23,07,48,1007.82
2020,02,23,07,49,1007.82
2020,02,23,07,50,1007.86
2020,02,23,07,51,1007.86
2020,02,23,07,52,1007.93
2020,02,23,07,53,1007.89
2020,02,23,07,54,1007.96
2020,02,23,07,55,1007.96
2020,02,23,07,56,1007.96
2020,02,23,07,57,1007.99
2020,02,23,07,58,1008.03
2020,02,23,07,59,1008.09
2020,02,23,08,00,1008.09
2020,02,23,08,01,1008.13
2020,02,23,08,02,1008.06
2020,02,23,08,03,1008.09
2020,02,23,08,04,1008.20
2020,02,23,08,05,1008.16
2020,02,23,08,06,1008.26
2020,02,23,08,07,1008.30
2020,02,23,08,08,1008.30
2020,02,23,08,09,1008.30
2020,02,23,08,10,1008.30
2020,02,23,08,11,1008.37
2020,02,23,08,12,1008.40
2020,02,23,08,13,1008.30
2020,02,23,08,14,1008.26
2020,02,23,08,15,1008.33
2020,02,23,08,16,1008.30
2020,02,23,08,17,1008.30
2020,02,23,08,18,1008.37
2020,02,23,08,19,1008.37
2020,02,23,08,20,1008.33
2020,02,23,08,21,1008.30
2020,02,23,08,22,1008.33
2020,02,23,08,23,1008.43
2020,02,23,08,24,1008.50
2020,02,23,08,25,1008.57
2020,02,23,08,26,1008.57
2020,02,23,08,27,1008.60
2020,02,23,08,28,1008.60
2020,02,23,08,29,1008.67
2020,02,23,08,30,1008.74
2020,02,23,08,31,1008.81
2020,02,23,08,32,1008.81
2020,02,23,08,33,1008.84
2020,02,23,08,34,1008.87
2020,02,23,08,35,1008.84
2020,02,23,08,36,1008.87
2020,02,23,08,37,1008.84
2020,02,23,08,38,1008.84
2020,02,23,08,39,1008.84
2020,02,23,08,40,1008.94
2020,02,23,08,41,1008.82
2020,02,23,08,42,1008.81
2020,02,23,08,43,1008.74
2020,02,23,08,44,1008.67
2020,02,23,08,45,1008.67
2020,02,23,08,46,1008.67
2020,02,23,08,47,1008.64
2020,02,23,08,48,1008.60
2020,02,23,08,49,1008.57
2020,02,23,08,50,1008.64
2020,02,23,08,51,1008.60
2020,02,23,08,52,1008.57
2020,02,23,08,53,1008.60
2020,02,23,08,54,1008.60
2020,02,23,08,55,1008.60
2020,02,23,08,56,1008.60
2020,02,23,08,57,1008.57
2020,02,23,08,58,1008.57
2020,02,23,08,59,1008.53
2020,02,23,09,00,1008.57
2020,02,23,09,01,1008.64
2020,02,23,09,02,1008.64
2020,02,23,09,03,1008.60
2020,02,23,09,04,1008.58
2020,02,23,09,05,1008.74
2020,02,23,09,06,1008.95
2020,02,23,09,07,1009.08
2020,02,23,09,08,1009.08
2020,02,23,09,09,1009.08
2020,02,23,09,10,1009.11
2020,02,23,09,11,1009.11
2020,02,23,09,12,1009.02
2020,02,23,09,13,1008.97
2020,02,23,09,14,1009.03
2020,02,23,09,15,1008.94
2020,02,23,09,16,1008.91
2020,02,23,09,17,1008.91
2020,02,23,09,18,1008.84
2020,02,23,09,19,1008.81
2020,02,23,09,20,1008.77
2020,02,23,09,21,1008.67
2020,02,23,09,22,1008.74
2020,02,23,09,23,1008.84
2020,02,23,09,24,1008.87
2020,02,23,09,25,1008.77
2020,02,23,09,26,1008.91
2020,02,23,09,27,1008.84
2020,02,23,09,28,1009.00
2020,02,23,09,29,1008.87
2020,02,23,09,30,1008.94
2020,02,23,09,31,1008.97
2020,02,23,09,32,1008.94
2020,02,23,09,33,1008.94
2020,02,23,09,34,1008.91
2020,02,23,09,35,1008.94
2020,02,23,09,36,1008.97
2020,02,23,09,37,1008.91
2020,02,23,09,38,1008.81
2020,02,23,09,39,1008.81
2020,02,23,09,40,1008.88
2020,02,23,09,41,1008.97
2020,02,23,09,42,1009.31
2020,02,23,09,43,1009.01
2020,02,23,09,44,1009.24
2020,02,23,09,45,1009.18
2020,02,23,09,46,1009.08
2020,02,23,09,47,1009.08
2020,02,23,09,48,1009.14
2020,02,23,09,49,1009.04
2020,02,23,09,50,1009.14
2020,02,23,09,51,1009.04
2020,02,23,09,52,1009.11
2020,02,23,09,53,1009.08
2020,02,23,09,54,1009.18
2020,02,23,09,55,1009.21
2020,02,23,09,56,1009.31
2020,02,23,09,57,1009.35
2020,02,23,09,58,1009.31
2020,02,23,09,59,1009.42
2020,02,23,10,00,1009.55
2020,02,23,10,01,1009.52
2020,02,23,10,02,1009.45
2020,02,23,10,03,1009.48
2020,02,23,10,04,1009.48
2020,02,23,10,05,1009.52
2020,02,23,10,06,1009.49
2020,02,23,10,07,1009.72
2020,02,23,10,08,1009.58
2020,02,23,10,09,1009.56
2020,02,23,10,10,1009.69
2020,02,23,10,11,1009.72
2020,02,23,10,12,1009.56
2020,02,23,10,13,1009.72
2020,02,23,10,14,1009.69
2020,02,23,10,15,1009.76
2020,02,23,10,16,1009.86
2020,02,23,10,17,1010.06
2020,02,23,10,18,1010.02
2020,02,23,10,19,1010.16
2020,02,23,10,20,1010.16
2020,02,23,10,21,1010.26
2020,02,23,10,22,1010.19
2020,02,23,10,23,1010.09
2020,02,23,10,24,1010.06
2020,02,23,10,25,1010.09
2020,02,23,10,26,1010.09
2020,02,23,10,27,1010.02
2020,02,23,10,28,1009.99
2020,02,23,10,29,1010.00
2020,02,23,10,30,1010.13
2020,02,23,10,31,1010.06
2020,02,23,10,32,1010.02
2020,02,23,10,33,1010.23
2020,02,23,10,34,1010.19
2020,02,23,10,35,1010.19
2020,02,23,10,36,1010.16
2020,02,23,10,37,1010.13
2020,02,23,10,38,1010.19
2020,02,23,10,39,1010.19
2020,02,23,10,40,1010.16
2020,02,23,10,41,1010.13
2020,02,23,10,42,1010.15
2020,02,23,10,43,1009.99
2020,02,23,10,44,1010.09
2020,02,23,10,45,1010.09
2020,02,23,10,46,1010.09
2020,02,23,10,47,1010.06
2020,02,23,10,48,1009.99
2020,02,23,10,49,1010.13
2020,02,23,10,50,1010.19
2020,02,23,10,51,1010.19
2020,02,23,10,52,1010.19
2020,02,23,10,53,1010.19
2020,02,23,10,54,1010.19
2020,02,23,10,55,1010.23
2020,02,23,10,56,1010.19
2020,02,23,10,57,1010.19
2020,02,23,10,58,1010.26
2020,02,23,10,59,1010.19
2020,02,23,11,00,1010.06
2020,02,23,11,01,1010.19
2020,02,23,11,02,1010.26
2020,02,23,11,03,1010.02
2020,02,23,11,04,1010.33
2020,02,23,11,05,1010.06
2020,02,23,11,06,1010.26
2020,02,23,11,07,1010.19
2020,02,23,11,08,1010.16
2020,02,23,11,09,1010.23
2020,02,23,11,10,1010.16
2020,02,23,11,11,1010.19
2020,02,23,11,12,1010.23
2020,02,23,11,13,1010.23
2020,02,23,11,14,1010.33
2020,02,23,11,15,1010.16
2020,02,23,11,16,1010.13
2020,02,23,11,17,1010.23
2020,02,23,11,18,1010.26
2020,02,23,11,19,1010.19
2020,02,23,11,20,1010.26
2020,02,23,11,21,1010.19
2020,02,23,11,22,1010.13
2020,02,23,11,23,1010.23
2020,02,23,11,24,1010.23
2020,02,23,11,25,1010.33
2020,02,23,11,26,1010.26
2020,02,23,11,27,1010.33
2020,02,23,11,28,1010.30
2020,02,23,11,29,1010.30
2020,02,23,11,30,1010.36
2020,02,23,11,31,1010.40
2020,02,23,11,32,1010.46
2020,02,23,11,33,1010.43
2020,02,23,11,34,1010.40
2020,02,23,11,35,1010.36
2020,02,23,11,36,1010.46
2020,02,23,11,37,1010.40
2020,02,23,11,38,1010.40
2020,02,23,11,39,1010.50
2020,02,23,11,40,1010.36
2020,02,23,11,41,1010.33
2020,02,23,11,42,1010.46
2020,02,23,11,43,1010.40
2020,02,23,11,44,1010.46
2020,02,23,11,45,1010.43
2020,02,23,11,46,1010.62
2020,02,23,11,47,1010.57
2020,02,23,11,48,1010.60
2020,02,23,11,49,1010.57
2020,02,23,11,50,1010.53
2020,02,23,11,51,1010.60
2020,02,23,11,52,1010.60
2020,02,23,11,53,1010.50
2020,02,23,11,54,1010.57
2020,02,23,11,55,1010.60
2020,02,23,11,56,1010.50
2020,02,23,11,57,1010.53
2020,02,23,11,58,1010.63
2020,02,23,11,59,1010.57
2020,02,23,12,00,1010.67
2020,02,23,12,01,1010.67
2020,02,23,12,02,1010.80
2020,02,23,12,03,1010.74
2020,02,23,12,04,1010.87
2020,02,23,12,05,1010.78
2020,02,23,12,06,1010.77
2020,02,23,12,07,1010.80
2020,02,23,12,08,1010.84
2020,02,23,12,09,1010.87
2020,02,23,12,10,1010.97
2020,02,23,12,11,1010.91
2020,02,23,12,12,1010.94
2020,02,23,12,13,1010.87
2020,02,23,12,14,1010.91
2020,02,23,17,09,1017.07
2020,02,23,17,10,1017.24
2020,02,23,17,11,1017.31
2020,02,23,17,12,1017.03
2020,02,23,17,13,1017.27
2020,02,23,17,14,1017.37
2020,02,23,17,15,1017.34
2020,02,23,17,16,1017.27
2020,02,23,17,17,1017.14
2020,02,23,17,18,1017.47
2020,02,23,17,22,1017.44
2020,02,23,17,23,1017.54
2020,02,23,17,24,1017.47
2020,02,23,17,25,1017.54
2020,02,23,17,26,1017.64
2020,02,23,17,27,1017.47
2020,02,23,17,28,1017.57
2020,02,23,17,29,1017.48
2020,02,23,17,30,1017.54
2020,02,23,17,31,1017.41
2020,02,23,17,32,1017.53
2020,02,23,17,33,1017.58
2020,02,23,17,34,1017.70
2020,02,23,17,35,1017.71
2020,02,23,17,36,1017.69
2020,02,23,17,37,1017.85
2020,02,23,17,38,1017.75
2020,02,23,17,39,1017.81
2020,02,23,17,40,1017.81
2020,02,23,17,41,1017.91
2020,02,23,17,42,1017.75
2020,02,23,17,43,1017.85
2020,02,23,17,44,1018.02
2020,02,23,17,45,1017.95
2020,02,23,17,46,1017.88
2020,02,23,17,47,1018.05
2020,02,23,17,48,1017.95
2020,02,23,17,49,1017.91
2020,02,23,17,50,1018.08
2020,02,23,17,51,1018.08
2020,02,23,17,52,1018.19
2020,02,23,17,53,1018.02
2020,02,23,17,54,1018.29
2020,02,23,17,55,1018.22
2020,02,23,17,56,1018.32
2020,02,23,17,57,1018.42
2020,02,23,17,58,1018.52
2020,02,23,17,59,1018.56
2020,02,23,18,00,1018.76
2020,02,23,18,01,1018.53
2020,02,23,18,02,1018.59
2020,02,23,18,03,1018.56
2020,02,23,18,04,1018.66
2020,02,23,18,05,1018.76
2020,02,23,18,06,1018.80
2020,02,23,18,07,1018.76
2020,02,23,18,08,1018.93
2020,02,23,18,09,1018.80
2020,02,23,18,10,1018.92
2020,02,23,18,11,1018.93
2020,02,23,18,12,1018.96
2020,02,23,18,13,1018.93
2020,02,23,18,14,1019.00
2020,02,23,18,15,1019.17
2020,02,23,18,16,1019.03
2020,02,23,18,17,1018.96
2020,02,23,18,18,1019.20
2020,02,23,18,19,1019.10
2020,02,23,18,20,1019.34
2020,02,23,18,21,1019.13
2020,02,23,18,22,1019.37
2020,02,23,18,23,1019.47
2020,02,23,18,24,1019.35
2020,02,23,18,25,1019.37
2020,02,23,18,26,1019.40
2020,02,23,18,27,1019.44
2020,02,23,18,28,1019.51
2020,02,23,18,29,1019.47
2020,02,23,18,30,1019.51
2020,02,23,18,31,1019.47
2020,02,23,18,32,1019.44
2020,02,23,18,33,1019.64
2020,02,23,18,34,1019.64
2020,02,23,18,35,1019.68
2020,02,23,18,36,1019.78
2020,02,23,18,37,1019.81
2020,02,23,18,38,1019.85
2020,02,23,18,39,1019.85
2020,02,23,18,40,1019.85
2020,02,23,18,41,1019.88
2020,02,23,18,42,1019.91
2020,02,23,18,43,1019.98
2020,02,23,18,44,1019.98
2020,02,23,18,45,1019.95
2020,02,23,18,46,1020.01
2020,02,23,18,47,1020.08
2020,02,23,18,48,1020.05
2020,02,23,18,49,1020.05
2020,02,23,18,50,1020.22
2020,02,23,18,51,1020.18
2020,02,23,18,52,1020.25
2020,02,23,18,53,1020.32
2020,02,23,18,54,1020.22
2020,02,23,18,55,1020.22
2020,02,23,18,56,1020.29
2020,02,23,18,57,1020.29
2020,02,23,18,58,1020.29
2020,02,23,18,59,1020.32
2020,02,23,19,00,1020.39
2020,02,23,19,01,1020.42
2020,02,23,19,02,1020.39
2020,02,23,19,03,1020.42
2020,02,23,19,04,1020.35
2020,02,23,19,05,1020.49
2020,02,23,19,06,1020.52
2020,02,23,19,07,1020.62
2020,02,23,19,08,1020.56
2020,02,23,19,09,1020.62
2020,02,23,19,10,1020.62
2020,02,23,19,11,1020.62
2020,02,23,19,12,1020.76
2020,02,23,19,13,1020.83
2020,02,23,19,14,1020.86
2020,02,23,19,15,1020.93
2020,02,23,19,16,1020.93
2020,02,23,19,17,1020.96
2020,02,23,19,18,1021.06
2020,02,23,19,19,1020.96
2020,02,23,19,20,1021.10
2020,02,23,19,21,1021.10
2020,02,23,19,22,1021.17
2020,02,23,19,23,1021.13
2020,02,23,19,24,1021.17
2020,02,23,19,25,1021.13
2020,02,23,19,26,1021.22
2020,02,23,19,27,1021.23
2020,02,23,19,28,1021.20
2020,02,23,19,29,1021.27
2020,02,23,19,30,1021.34
2020,02,23,19,31,1021.40
2020,02,23,19,32,1021.40
2020,02,23,19,33,1021.44
2020,02,23,19,34,1021.50
2020,02,23,19,35,1021.57
2020,02,23,19,36,1021.57
2020,02,23,19,37,1021.54
2020,02,23,19,38,1021.64
2020,02,23,19,39,1021.64
2020,02,23,19,40,1021.67
2020,02,23,19,41,1021.71
2020,02,23,19,42,1021.48
2020,02,23,19,43,1021.71
2020,02,23,19,44,1021.78
2020,02,23,19,45,1021.64
2020,02,23,19,46,1021.74
2020,02,23,19,47,1021.81
2020,02,23,19,48,1021.81
2020,02,23,19,49,1021.84
2020,02,23,19,50,1021.81
2020,02,23,19,51,1021.81
2020,02,23,19,52,1021.94
2020,02,23,19,53,1021.98
2020,02,23,19,54,1022.08
2020,02,23,19,55,1021.98
2020,02,23,19,56,1022.05
2020,02,23,19,57,1022.17
2020,02,23,19,58,1022.15
2020,02,23,19,59,1022.22
2020,02,23,20,00,1022.28
2020,02,23,20,01,1022.28
2020,02,23,20,02,1022.35
2020,02,23,20,03,1022.35
2020,02,23,20,04,1022.28
2020,02,23,20,05,1022.41
2020,02,23,20,06,1022.49
2020,02,23,20,07,1022.42
2020,02,23,20,08,1022.32
2020,02,23,20,09,1022.45
2020,02,23,20,10,1022.42
2020,02,23,20,11,1022.52
2020,02,23,20,12,1022.40
2020,02,23,20,13,1022.59
2020,02,23,20,14,1022.52
2020,02,23,20,15,1022.59
2020,02,23,20,16,1022.59
2020,02,23,20,17,1022.66
2020,02,23,20,18,1022.72
2020,02,23,20,19,1022.76
2020,02,23,20,20,1022.79
2020,02,23,20,21,1022.79
2020,02,23,20,22,1022.83
2020,02,23,20,23,1022.86
2020,02,23,20,24,1022.83
2020,02,23,20,25,1022.93
2020,02,23,20,26,1022.96
2020,02,23,20,27,1022.99
2020,02,23,20,28,1023.10
2020,02,23,20,29,1023.06
2020,02,23,20,30,1023.19
2020,02,23,20,31,1023.16
2020,02,23,20,32,1023.16
2020,02,23,20,33,1023.23
2020,02,23,20,34,1023.33
2020,02,23,20,35,1023.37
2020,02,23,20,36,1023.30
2020,02,23,20,37,1023.37
2020,02,23,20,38,1023.37
2020,02,23,20,39,1023.47
2020,02,23,20,40,1023.47
2020,02,23,20,41,1023.50
2020,02,23,20,42,1023.54
2020,02,23,20,43,1023.64
2020,02,23,20,44,1023.64
2020,02,23,20,45,1023.67
2020,02,23,20,46,1023.64
2020,02,23,20,47,1023.67
2020,02,23,20,48,1023.84
2020,02,23,20,49,1023.71
2020,02,23,20,50,1023.84
2020,02,23,20,51,1023.88
2020,02,23,20,52,1023.84
2020,02,23,20,53,1023.91